7 * 24
多渠道服务支持
ORBCOMM FM 28是ORBCOMM低轨卫星移动通信系统的组成卫星,于1998年9月23日发射,归属ORB(轨道通信公司主导的国际项目)。该系统是全球首个低轨物联网卫星星座,主打机器对机器(M2M)通信服务,支持全球范围内低成本短数据传输,可用于远程资产监测、物流跟踪、应急通信等场景。卫星运行在近地轨道,具备低时延、信号覆盖广的优势,为全球物联网连接提供基础设施支持。
(ORB)
| 数据来源 | 国际轨道数据 |
| 星历时间: | 2026-06-12T09:20:11+0800 18小时前 查看轨道信息 |
| 半长轴: | 7139.27km |
| 偏心率: | 0.0004073 |
| 轨道倾角: | 45.006° |
| 近地点辐角 | 285.712° |
| 升交点赤经 | 296.869° |
| 平近点角 | 74.327° |
| 近地点: | 758.225km |
| 远地点: | 764.041km |
| 周期: | 100.055分钟 |
| 每日圈数: | 14.39203 |